SCP
-0 -0 -0 -0 -0 -0 -0 -0 0 0 -0 -0 -0 -0 -0 -0 -0 -0 0 0 0 0 0 0 0 0 0 0 -0 -0 -0 -0 -0 -0 -0 0 -0 -0 -0 -0 -0 -0 -0
-0 -0 -1 -0 -0 -0 -0 -0 0 0 -0 -0 -0 -0 -0 -0 -0 0 0 0 0 0 0 0 0 -0 -0 0 0 0 0 0 -0 0 -0 -0 -0 -0 -0 -0 -0 -0 -0
-0 -0 -0 -0 -0 -0 -0 0 0 0 0 -0 -0 0 -0 -0 0 0 0 0 0 0 0 0 0 0 -0 -0 -0 0 0 0 0 -0 -0 0 0 -0 -0 -0 -0 -0 -0
-0 -0 -0 -0 -0 -0 -0 0 0 0 0 0 0 0 0 0 0 0 0 0 0 0 0 -0 0 0 0 0 0 0 0 0 0 -0 -0 0 -0 -0 -0 -0 -0 -0 -0
-0 -0 -0 -0 -0 -0 -0 0 0 0 0 0 0 0 0 0 0 0 0 0 0 0 0 0 0 0 0 0 0 0 0 0 0 0 0 0 -0 -0 -0 -0 -0 -0 -0
-0 -0 -0 -0 -0 -0 -0 0 0 0 0 0 0 0 0 0 0 0 0 0 0 0 0 0 0 0 0 0 -0 0 0 0 0 0 0 -0 -0 -0 -0 -0 -0 -0 -0
-0 -0 -0 -0 -0 -0 -0 -0 0 0 0 0 0 0 0 0 0 0 0 0 0 -0 -0 -0 -0 -0 -0 -0 -0 -0 -0 0 0 0 0 -0 -0 -0 -0 -0 -0 -0 -0
-0 -0 -0 -0 -0 -0 -0 -0 -0 0 0 0 0 0 0 0 0 0 0 -0 -0 -0 -0 -0 -0 -0 -0 -0 -0 -0 -0 -0 -0 0 -0 -0 -0 -0 -0 -0 -0 -0 -0
-0 -0 -0 -0 -0 -0 -0 -0 0 0 0 0 0 0 0 0 0 0 -0 -0 -0 -0 -0 -0 -0 -0 -0 -0 -0 -0 -0 0 0 0 -0 -0 -0 -0 -0 -0 -0 -0 -0
-0 -0 -0 -0 0 -0 -0 -0 -0 0 0 0 0 0 -0 -0 0 0 -0 -0 -0 -0 -0 -0 -0 -0 -0 -0 0 -0 -0 -0 -0 -0 0 0 -0 -0 -0 -0 -0 -0 -0
-0 -0 -0 -0 0 0 0 0 0 0 0 0 0 0 -0 -0 -0 -0 -0 -0 -0 -0 -0 -0 -0 -0 -0 -0 0 0 -0 0 0 -0 0 -0 -0 -0 -0 -0 -0 -0 -0
-0 -0 -0 0 0 0 0 0 0 0 0 0 -0 0 -0 -0 -0 -0 -0 -0 -0 -0 -0 -0 -0 -0 0 0 0 0 -0 -0 0 -0 0 0 -0 -0 -0 -0 -0 -0 -0
-0 -0 -0 0 0 0 0 -0 0 -0 -0 -0 0 0 -0 -0 0 0 0 0 0 0 0 0 0 0 0 0 0 0 0 0 0 0 0 0 0 0 0 -0 -0 -0 -0
-0 -0 -0 0 0 0 -0 -0 0 -0 -0 -0 -0 0 -0 -0 -0 -0 0 0 -0 -0 0 0 0 0 0 0 0 0 0 0 0 0 0 -0 -0 0 0 0 0 -0 -0
-0 -0 -0 -0 -0 -0 -0 -0 -0 0 0 -0 -0 -0 0 -0 -0 0 0 0 0 0 0 0 0 0 0 0 0 0 0 0 0 0 0 0 0 -0 -0 -0 0 0 0
-0 -0 -0 -0 -0 0 -0 -0 -0 -0 -0 0 0 0 0 -0 -0 -0 0 -0 -0 0 0 0 0 0 0 0 0 0 0 0 0 0 0 0 0 0 0 0 0 0 1
0 0 0 0 0 0 0 0 0 0 0 0 0 0 0 0 0 0 0 -0 0 0 0 0 0 0 0 0 0 0 0 0 0 0 0 0 0 0 0 0 0 0 0
0 0 0 0 0 0 0 0 0 0 0 0 0 0 0 0 0 0 0 0 0 0 0 0 0 0 0 0 0 0 0 0 0 0 0 0 0 0 0 0 0 0 0
0 0 0 0 0 0 0 0 0 0 0 0 0 0 0 0 0 0 0 0 0 0 0 0 0 0 0 0 0 0 0 0 0 0 0 0 0 0 0 0 0 0 0
0 0 0 0 0 0 0 0 0 0 0 0 0 0 0 0 0 0 0 0 0 0 0 0 0 0 0 0 0 0 0 0 0 0 0 0 0 0 0 0 0 0 0
0 0 0 0 0 0 0 0 0 0 0 0 0 0 0 0 0 0 0 0 0 0 0 0 0 0 0 0 0 0 0 0 0 0 0 0 0 0 0 0 0 0 0
0 0 0 0 0 0 0 0 0 0 0 0 0 0 0 0 0 0 0 0 0 0 0 0 0 0 0 0 0 0 0 0 0 0 0 0 0 0 0 0 0 0 0
0 0 0 0 0 0 0 0 0 0 0 0 0 0 0 0 0 0 0 0 0 0 0 0 0 0 0 0 0 0 0 0 0 0 0 0 0 0 0 0 0 0 0
0 0 0 0 0 0 0 0 0 0 0 0 0 0 0 0 0 0 0 0 0 0 0 0 0 0 0 0 0 0 0 0 0 0 0 0 0 0 0 0 0 0 0
0 0 0 0 0 0 0 0 0 0 0 0 0 0 0 0 0 0 0 0 0 0 0 0 0 0 0 0 0 0 0 0 0 0 0 0 0 0 0 0 0 0 0
0 0 0 0 0 0 0 0 0 0 0 0 0 0 0 0 0 0 0 0 0 0 0 0 0 0 0 0 0 0 0 0 0 0 0 0 0 0 0 0 0 0 0
Wind_Speed_500mb
52 47 46 46 43 41 43 47 47 50 51 55 57 58 58 57 54 49 45 41 38 37 36 34 32 32 30 31 32 32 36 40 40 38 36 33 28 28 29 28 25 22 19
56 52 50 49 46 45 45 48 49 50 53 56 57 56 53 50 46 44 40 37 36 34 33 34 33 31 30 30 29 33 34 30 34 41 36 32 28 25 25 26 27 27 24
58 56 54 51 49 49 49 48 50 50 53 55 54 51 47 44 41 39 37 35 32 32 32 32 33 33 32 32 31 31 27 26 24 28 29 29 28 24 21 22 25 26 26
61 60 58 55 53 53 52 51 52 52 54 53 51 47 43 40 38 35 32 32 29 29 29 30 30 29 29 30 29 25 23 23 22 21 20 25 23 24 19 18 20 22 24
64 61 59 56 55 55 52 52 53 52 52 51 48 43 39 36 34 32 29 27 26 25 26 27 29 30 31 30 25 22 19 18 15 16 18 19 19 22 18 14 17 19 21
65 63 59 59 57 55 52 52 52 52 50 47 44 39 36 32 28 27 26 24 22 22 21 23 26 30 29 26 18 15 13 12 10 11 14 17 18 19 20 14 15 17 18
67 64 62 60 59 55 52 51 51 50 48 44 40 35 31 28 25 24 24 22 20 19 19 21 22 23 24 23 19 14 11 8 5 12 14 18 18 19 20 16 15 14 15
66 66 64 62 59 56 52 50 50 48 45 42 37 32 28 26 24 23 22 21 20 18 19 21 21 22 22 21 16 15 8 7 6 9 10 12 16 17 20 18 17 14 13
62 63 64 63 59 54 50 48 47 46 42 38 34 30 28 26 24 23 23 23 22 22 23 23 23 20 19 17 15 10 7 11 11 5 6 7 11 12 16 17 17 15 13
59 60 62 63 60 56 50 45 43 42 39 35 33 30 28 27 24 26 23 21 21 21 21 21 19 18 16 17 15 9 14 5 5 4 6 7 8 9 9 11 11 11 11
57 57 59 60 58 53 48 44 41 40 38 35 33 33 31 28 28 27 24 22 19 21 22 20 15 12 9 17 25 14 13 15 14 11 11 8 8 6 4 5 5 5 5
60 61 59 58 56 53 49 45 42 40 37 35 35 35 28 26 24 19 20 18 18 19 18 11 5 7 6 7 12 15 14 14 13 12 10 12 11 6 3 2 1 5 4
54 63 62 59 56 53 49 45 42 39 38 38 40 35 27 24 18 14 10 9 10 13 15 9 7 7 8 3 9 6 10 12 3 13 15 16 11 8 8 7 8 12 13
52 62 61 59 56 50 44 43 40 39 39 38 37 38 29 25 22 20 12 21 16 21 21 17 16 11 10 12 17 12 13 17 11 10 10 11 11 12 10 9 13 16 19
52 61 57 59 57 52 41 32 42 40 33 31 32 38 37 33 29 22 24 30 28 27 24 21 19 19 21 19 18 12 17 21 21 16 15 18 18 14 16 16 16 16 20
56 65 57 55 53 46 37 34 41 41 39 38 39 34 36 41 40 35 33 34 32 29 30 31 33 33 29 21 19 17 19 22 23 22 17 15 14 11 12 17 16 14 10
67 62 61 57 52 48 45 41 45 45 47 51 48 44 39 43 43 37 38 39 38 39 39 39 36 33 30 23 16 18 21 23 25 22 20 18 14 15 16 9 7 3 2
76 74 66 72 75 51 54 55 46 53 52 55 56 49 42 38 46 46 44 45 46 42 35 31 30 32 33 27 21 22 25 19 23 21 18 18 20 25 26 18 14 15 14
74 82 85 78 86 64 61 57 56 58 59 56 53 49 44 43 42 49 47 44 42 37 31 28 28 30 30 29 23 21 21 16 18 19 18 20 27 29 20 22 21 16 18
79 88 89 82 86 79 67 62 60 59 56 54 52 49 45 46 45 44 43 41 38 32 30 29 31 31 29 23 17 28 24 16 13 14 22 21 12 10 5 7 10 14 15
88 88 92 88 82 80 83 75 69 67 64 63 59 52 40 38 41 39 37 36 36 33 31 29 30 30 22 15 26 35 28 20 15 8 9 16 9 7 7 3 7 8 6
86 90 88 82 76 73 80 75 74 73 65 58 52 45 38 33 37 35 32 33 33 31 32 30 28 28 22 20 49 43 34 27 19 11 2 3 8 12 10 8 6 5 5
102 103 96 87 77 75 76 73 65 66 64 59 51 40 34 32 34 38 35 32 30 28 29 25 24 25 22 23 48 31 26 17 33 19 19 12 10 14 16 13 9 10 12
106 100 96 83 77 77 75 72 73 71 65 55 46 38 28 25 28 34 33 30 28 25 21 19 20 23 23 25 38 44 36 31 27 25 27 19 14 12 14 8 9 14 15
108 107 92 79 70 68 67 64 65 65 61 56 47 34 26 24 26 26 26 24 21 18 18 18 19 20 21 22 26 33 29 34 38 46 40 29 23 18 18 12 5 10 10
99 96 87 81 68 63 65 67 70 69 64 51 37 30 23 21 19 18 18 18 17 14 15 20 22 21 21 22 22 26 23 30 38 48 45 36 35 24 27 20 16 9 7
Wind_Direction_500mb
170 157 160 155 150 141 135 131 131 130 126 125 123 122 121 120 117 114 113 113 108 104 102 102 105 106 110 112 107 105 99 94 90 85 82 84 81 77 78 85 91 98 107
164 156 159 155 151 142 137 134 134 132 130 128 125 122 120 118 116 115 116 112 105 103 101 100 98 101 108 122 111 105 103 105 92 83 76 73 77 76 81 87 92 94 98
161 157 158 156 151 144 140 139 140 136 134 130 127 124 121 119 117 116 114 108 105 103 101 96 92 94 103 114 112 105 96 91 96 93 75 72 71 77 83 92 94 95 96
162 159 159 156 152 146 143 141 141 139 137 134 130 126 122 118 116 115 112 110 106 102 98 92 89 95 104 113 112 100 91 87 81 107 96 73 71 79 90 98 97 98 98
162 160 159 156 153 148 146 145 143 142 141 139 135 131 126 121 116 114 113 110 103 99 96 90 90 100 109 115 110 103 88 78 77 86 97 81 82 79 93 104 109 107 105
163 162 159 158 154 151 150 148 146 145 143 143 141 135 129 121 116 114 113 110 107 103 99 93 96 102 105 111 108 101 81 92 101 96 97 98 93 76 81 103 115 112 108
163 162 159 159 156 155 153 151 150 149 149 148 144 138 132 124 119 116 114 112 110 109 107 102 99 99 101 105 110 112 115 123 167 105 91 92 103 82 76 89 99 112 114
165 163 160 160 159 157 156 155 155 154 154 151 147 142 135 127 122 116 110 105 101 102 102 105 108 105 103 99 96 93 73 86 77 157 103 87 105 90 72 72 84 100 120
169 166 163 163 162 162 162 160 160 159 157 155 151 145 137 128 122 117 110 103 96 95 94 99 111 108 96 86 65 67 73 78 60 161 188 120 127 104 80 66 68 86 101
173 172 168 167 167 167 166 165 162 161 158 156 150 143 135 129 119 121 113 106 102 100 100 101 108 104 79 48 54 14 14 30 49 264 175 164 146 127 96 71 60 77 99
177 177 174 173 170 169 168 165 164 161 158 155 150 142 133 128 120 108 101 107 104 106 102 94 102 102 65 70 67 51 60 61 103 90 190 170 151 125 117 61 39 47 95
181 181 180 177 174 173 173 171 168 166 163 159 153 144 146 141 134 126 114 108 110 117 107 81 87 162 131 77 52 47 15 23 81 125 148 171 154 148 184 194 295 290 262
184 184 183 180 179 177 179 177 175 172 169 167 165 163 163 161 164 165 153 144 142 143 165 185 187 176 190 317 330 312 339 325 45 139 166 174 188 181 206 237 264 259 256
183 187 184 183 181 179 181 184 181 179 176 176 174 179 175 173 178 184 167 157 193 201 192 205 212 217 223 263 274 246 256 277 271 206 206 212 226 220 234 263 279 271 258
189 183 182 183 179 172 170 183 184 179 177 175 177 185 191 191 199 199 191 188 188 191 207 223 235 255 261 265 234 242 246 254 264 229 221 228 229 245 260 272 277 272 263
194 185 177 183 184 178 178 173 175 182 184 186 192 195 200 201 200 199 202 205 213 220 226 232 244 263 261 260 244 256 262 263 256 256 251 248 256 272 308 297 290 291 281
196 189 184 185 185 185 191 200 194 200 197 203 206 206 206 208 208 208 211 214 224 234 245 253 260 262 261 262 254 252 265 268 267 253 256 260 266 297 302 340 14 298 184
191 190 193 186 188 188 192 200 200 195 197 199 204 212 216 221 224 224 228 235 242 250 251 255 260 267 272 274 261 249 252 249 252 254 256 264 275 278 277 277 277 258 253
192 195 196 195 195 190 185 186 189 185 191 199 207 216 223 234 236 232 234 238 243 249 254 258 265 271 280 282 266 229 216 228 248 257 273 282 288 286 269 252 260 235 232
196 194 195 197 195 199 194 197 197 203 207 213 220 227 236 244 240 230 232 240 247 252 256 261 271 274 271 266 238 199 193 195 230 258 279 288 295 276 282 214 201 199 218
196 195 196 193 197 204 201 202 205 210 214 223 228 233 230 229 233 232 232 237 245 254 262 269 270 266 258 228 175 167 168 175 175 221 271 316 341 351 3 54 162 180 199
191 196 196 196 200 205 208 205 209 213 217 224 226 228 231 228 237 239 237 243 251 258 266 269 259 244 231 196 169 164 150 157 152 152 206 352 39 45 34 21 54 88 68
198 199 203 199 197 198 205 210 208 210 216 218 221 226 233 234 239 244 246 248 255 260 262 257 241 230 222 192 182 178 160 175 145 137 137 120 79 51 45 23 37 39 39
206 200 200 195 193 199 210 212 216 214 214 219 227 225 229 232 230 236 243 248 251 245 241 235 225 221 216 202 191 200 200 183 175 153 156 148 122 84 63 54 36 37 33
202 198 196 199 196 198 207 215 218 217 216 214 211 214 213 233 233 230 232 233 234 229 224 212 206 211 211 216 202 191 192 188 191 167 147 143 153 141 134 137 75 29 22
197 194 196 198 198 203 209 211 214 210 210 203 196 204 208 220 217 213 215 214 214 208 200 197 195 200 212 214 204 195 186 178 174 170 160 151 140 152 149 153 157 179 256
Wind_Speed_850mb
52 47 46 46 43 41 43 47 47 50 51 55 57 58 58 57 54 49 45 41 38 37 36 34 32 32 30 31 32 32 36 40 40 38 36 33 28 28 29 28 25 22 19
56 52 50 49 46 45 45 48 49 50 53 56 57 56 53 50 46 44 40 37 36 34 33 34 33 31 30 30 29 33 34 30 34 41 36 32 28 25 25 26 27 27 24
58 56 54 51 49 49 49 48 50 50 53 55 54 51 47 44 41 39 37 35 32 32 32 32 33 33 32 32 31 31 27 26 24 28 29 29 28 24 21 22 25 26 26
61 60 58 55 53 53 52 51 52 52 54 53 51 47 43 40 38 35 32 32 29 29 29 30 30 29 29 30 29 25 23 23 22 21 20 25 23 24 19 18 20 22 24
64 61 59 56 55 55 52 52 53 52 52 51 48 43 39 36 34 32 29 27 26 25 26 27 29 30 31 30 25 22 19 18 15 16 18 19 19 22 18 14 17 19 21
65 63 59 59 57 55 52 52 52 52 50 47 44 39 36 32 28 27 26 24 22 22 21 23 26 30 29 26 18 15 13 12 10 11 14 17 18 19 20 14 15 17 18
67 64 62 60 59 55 52 51 51 50 48 44 40 35 31 28 25 24 24 22 20 19 19 21 22 23 24 23 19 14 11 8 5 12 14 18 18 19 20 16 15 14 15
66 66 64 62 59 56 52 50 50 48 45 42 37 32 28 26 24 23 22 21 20 18 19 21 21 22 22 21 16 15 8 7 6 9 10 12 16 17 20 18 17 14 13
62 63 64 63 59 54 50 48 47 46 42 38 34 30 28 26 24 23 23 23 22 22 23 23 23 20 19 17 15 10 7 11 11 5 6 7 11 12 16 17 17 15 13
59 60 62 63 60 56 50 45 43 42 39 35 33 30 28 27 24 26 23 21 21 21 21 21 19 18 16 17 15 9 14 5 5 4 6 7 8 9 9 11 11 11 11
57 57 59 60 58 53 48 44 41 40 38 35 33 33 31 28 28 27 24 22 19 21 22 20 15 12 9 17 25 14 13 15 14 11 11 8 8 6 4 5 5 5 5
60 61 59 58 56 53 49 45 42 40 37 35 35 35 28 26 24 19 20 18 18 19 18 11 5 7 6 7 12 15 14 14 13 12 10 12 11 6 3 2 1 5 4
54 63 62 59 56 53 49 45 42 39 38 38 40 35 27 24 18 14 10 9 10 13 15 9 7 7 8 3 9 6 10 12 3 13 15 16 11 8 8 7 8 12 13
52 62 61 59 56 50 44 43 40 39 39 38 37 38 29 25 22 20 12 21 16 21 21 17 16 11 10 12 17 12 13 17 11 10 10 11 11 12 10 9 13 16 19
52 61 57 59 57 52 41 32 42 40 33 31 32 38 37 33 29 22 24 30 28 27 24 21 19 19 21 19 18 12 17 21 21 16 15 18 18 14 16 16 16 16 20
56 65 57 55 53 46 37 34 41 41 39 38 39 34 36 41 40 35 33 34 32 29 30 31 33 33 29 21 19 17 19 22 23 22 17 15 14 11 12 17 16 14 10
67 62 61 57 52 48 45 41 45 45 47 51 48 44 39 43 43 37 38 39 38 39 39 39 36 33 30 23 16 18 21 23 25 22 20 18 14 15 16 9 7 3 2
76 74 66 72 75 51 54 55 46 53 52 55 56 49 42 38 46 46 44 45 46 42 35 31 30 32 33 27 21 22 25 19 23 21 18 18 20 25 26 18 14 15 14
74 82 85 78 86 64 61 57 56 58 59 56 53 49 44 43 42 49 47 44 42 37 31 28 28 30 30 29 23 21 21 16 18 19 18 20 27 29 20 22 21 16 18
79 88 89 82 86 79 67 62 60 59 56 54 52 49 45 46 45 44 43 41 38 32 30 29 31 31 29 23 17 28 24 16 13 14 22 21 12 10 5 7 10 14 15
88 88 92 88 82 80 83 75 69 67 64 63 59 52 40 38 41 39 37 36 36 33 31 29 30 30 22 15 26 35 28 20 15 8 9 16 9 7 7 3 7 8 6
86 90 88 82 76 73 80 75 74 73 65 58 52 45 38 33 37 35 32 33 33 31 32 30 28 28 22 20 49 43 34 27 19 11 2 3 8 12 10 8 6 5 5
102 103 96 87 77 75 76 73 65 66 64 59 51 40 34 32 34 38 35 32 30 28 29 25 24 25 22 23 48 31 26 17 33 19 19 12 10 14 16 13 9 10 12
106 100 96 83 77 77 75 72 73 71 65 55 46 38 28 25 28 34 33 30 28 25 21 19 20 23 23 25 38 44 36 31 27 25 27 19 14 12 14 8 9 14 15
108 107 92 79 70 68 67 64 65 65 61 56 47 34 26 24 26 26 26 24 21 18 18 18 19 20 21 22 26 33 29 34 38 46 40 29 23 18 18 12 5 10 10
99 96 87 81 68 63 65 67 70 69 64 51 37 30 23 21 19 18 18 18 17 14 15 20 22 21 21 22 22 26 23 30 38 48 45 36 35 24 27 20 16 9 7
Wind_Direction_850mb
170 157 160 155 150 141 135 131 131 130 126 125 123 122 121 120 117 114 113 113 108 104 102 102 105 106 110 112 107 105 99 94 90 85 82 84 81 77 78 85 91 98 107
164 156 159 155 151 142 137 134 134 132 130 128 125 122 120 118 116 115 116 112 105 103 101 100 98 101 108 122 111 105 103 105 92 83 76 73 77 76 81 87 92 94 98
161 157 158 156 151 144 140 139 140 136 134 130 127 124 121 119 117 116 114 108 105 103 101 96 92 94 103 114 112 105 96 91 96 93 75 72 71 77 83 92 94 95 96
162 159 159 156 152 146 143 141 141 139 137 134 130 126 122 118 116 115 112 110 106 102 98 92 89 95 104 113 112 100 91 87 81 107 96 73 71 79 90 98 97 98 98
162 160 159 156 153 148 146 145 143 142 141 139 135 131 126 121 116 114 113 110 103 99 96 90 90 100 109 115 110 103 88 78 77 86 97 81 82 79 93 104 109 107 105
163 162 159 158 154 151 150 148 146 145 143 143 141 135 129 121 116 114 113 110 107 103 99 93 96 102 105 111 108 101 81 92 101 96 97 98 93 76 81 103 115 112 108
163 162 159 159 156 155 153 151 150 149 149 148 144 138 132 124 119 116 114 112 110 109 107 102 99 99 101 105 110 112 115 123 167 105 91 92 103 82 76 89 99 112 114
165 163 160 160 159 157 156 155 155 154 154 151 147 142 135 127 122 116 110 105 101 102 102 105 108 105 103 99 96 93 73 86 77 157 103 87 105 90 72 72 84 100 120
169 166 163 163 162 162 162 160 160 159 157 155 151 145 137 128 122 117 110 103 96 95 94 99 111 108 96 86 65 67 73 78 60 161 188 120 127 104 80 66 68 86 101
173 172 168 167 167 167 166 165 162 161 158 156 150 143 135 129 119 121 113 106 102 100 100 101 108 104 79 48 54 14 14 30 49 264 175 164 146 127 96 71 60 77 99
177 177 174 173 170 169 168 165 164 161 158 155 150 142 133 128 120 108 101 107 104 106 102 94 102 102 65 70 67 51 60 61 103 90 190 170 151 125 117 61 39 47 95
181 181 180 177 174 173 173 171 168 166 163 159 153 144 146 141 134 126 114 108 110 117 107 81 87 162 131 77 52 47 15 23 81 125 148 171 154 148 184 194 295 290 262
184 184 183 180 179 177 179 177 175 172 169 167 165 163 163 161 164 165 153 144 142 143 165 185 187 176 190 317 330 312 339 325 45 139 166 174 188 181 206 237 264 259 256
183 187 184 183 181 179 181 184 181 179 176 176 174 179 175 173 178 184 167 157 193 201 192 205 212 217 223 263 274 246 256 277 271 206 206 212 226 220 234 263 279 271 258
189 183 182 183 179 172 170 183 184 179 177 175 177 185 191 191 199 199 191 188 188 191 207 223 235 255 261 265 234 242 246 254 264 229 221 228 229 245 260 272 277 272 263
194 185 177 183 184 178 178 173 175 182 184 186 192 195 200 201 200 199 202 205 213 220 226 232 244 263 261 260 244 256 262 263 256 256 251 248 256 272 308 297 290 291 281
196 189 184 185 185 185 191 200 194 200 197 203 206 206 206 208 208 208 211 214 224 234 245 253 260 262 261 262 254 252 265 268 267 253 256 260 266 297 302 340 14 298 184
191 190 193 186 188 188 192 200 200 195 197 199 204 212 216 221 224 224 228 235 242 250 251 255 260 267 272 274 261 249 252 249 252 254 256 264 275 278 277 277 277 258 253
192 195 196 195 195 190 185 186 189 185 191 199 207 216 223 234 236 232 234 238 243 249 254 258 265 271 280 282 266 229 216 228 248 257 273 282 288 286 269 252 260 235 232
196 194 195 197 195 199 194 197 197 203 207 213 220 227 236 244 240 230 232 240 247 252 256 261 271 274 271 266 238 199 193 195 230 258 279 288 295 276 282 214 201 199 218
196 195 196 193 197 204 201 202 205 210 214 223 228 233 230 229 233 232 232 237 245 254 262 269 270 266 258 228 175 167 168 175 175 221 271 316 341 351 3 54 162 180 199
191 196 196 196 200 205 208 205 209 213 217 224 226 228 231 228 237 239 237 243 251 258 266 269 259 244 231 196 169 164 150 157 152 152 206 352 39 45 34 21 54 88 68
198 199 203 199 197 198 205 210 208 210 216 218 221 226 233 234 239 244 246 248 255 260 262 257 241 230 222 192 182 178 160 175 145 137 137 120 79 51 45 23 37 39 39
206 200 200 195 193 199 210 212 216 214 214 219 227 225 229 232 230 236 243 248 251 245 241 235 225 221 216 202 191 200 200 183 175 153 156 148 122 84 63 54 36 37 33
202 198 196 199 196 198 207 215 218 217 216 214 211 214 213 233 233 230 232 233 234 229 224 212 206 211 211 216 202 191 192 188 191 167 147 143 153 141 134 137 75 29 22
197 194 196 198 198 203 209 211 214 210 210 203 196 204 208 220 217 213 215 214 214 208 200 197 195 200 212 214 204 195 186 178 174 170 160 151 140 152 149 153 157 179 256